| time (UTC) | temp F | wind direction | speed MPH | gust MPH | rain 1hr in | rain 24hr in | rain mn in | humidity % | barometer mb |
| 20260504081541 | 50 | 16 | 13.0 | 20.0 | 0.00 | 0.00 | 0.00 | 50 | 1015.1 |
| 20260504044541 | 58 | 5 | 8.0 | 12.0 | 0.00 | 0.00 | 0.00 | 35 | 1009.7 |
| 20260504043039 | 58 | 19 | 8.0 | 14.0 | 0.00 | 0.00 | 0.00 | 34 | 1009.2 |
| 20260504041539 | 59 | 5 | 7.0 | 11.0 | 0.00 | 0.00 | 0.00 | 33 | 1008.9 |
| 20260504040039 | 60 | 5 | 10.0 | 17.0 | 0.00 | 0.00 | 0.00 | 32 | 1008.5 |
| 20260504034544 | 60 | 5 | 11.0 | 15.0 | 0.00 | 0.00 | 0.00 | 32 | 1008.1 |
| 20260504033050 | 60 | 9 | 9.0 | 14.0 | 0.00 | 0.00 | 0.00 | 31 | 1007.9 |
| 20260504031535 | 60 | 360 | 6.0 | 9.0 | 0.00 | 0.00 | 0.00 | 28 | 1007.4 |
| 20260504030041 | 62 | 5 | 8.0 | 12.0 | 0.00 | 0.00 | 0.00 | 25 | 1007.2 |
| 20260504024544 | 63 | 24 | 3.0 | 5.0 | 0.00 | 0.00 | 0.00 | 22 | 1007.0 |
| 20260504023037 | 64 | 10 | 3.0 | 5.0 | 0.00 | 0.00 | 0.00 | 22 | 1006.9 |
| 20260504021538 | 66 | 9 | 4.0 | 8.0 | 0.00 | 0.00 | 0.00 | 21 | 1006.9 |
| 20260504020037 | 68 | 360 | 6.0 | 13.0 | 0.00 | 0.00 | 0.00 | 19 | 1007.2 |
| 20260504014539 | 71 | 352 | 9.0 | 13.0 | 0.00 | 0.00 | 0.00 | 18 | 1007.1 |
| 20260504013038 | 72 | 18 | 10.0 | 16.0 | 0.00 | 0.00 | 0.00 | 17 | 1007.2 |
| 20260504011538 | 73 | 15 | 11.0 | 17.0 | 0.00 | 0.00 | 0.00 | 17 | 1007.2 |
| 20260504010048 | 74 | 5 | 8.0 | 14.0 | 0.00 | 0.00 | 0.00 | 17 | 1007.3 |
| 20260504004537 | 74 | 340 | 10.0 | 16.0 | 0.00 | 0.00 | 0.00 | 16 | 1007.2 |
| 20260504003037 | 75 | 17 | 8.0 | 16.0 | 0.00 | 0.00 | 0.00 | 15 | 1007.4 |
| 20260504001550 | 76 | 323 | 8.0 | 13.0 | 0.00 | 0.00 | 0.00 | 15 | 1007.6 |
| 20260504000040 | 76 | 294 | 8.0 | 14.0 | 0.00 | 0.00 | 0.00 | 15 | 1007.7 |
| 20260503234539 | 76 | 317 | 6.0 | 13.0 | 0.00 | 0.00 | 0.00 | 15 | 1007.7 |
| 20260503233037 | 76 | 269 | 8.0 | 15.0 | 0.00 | 0.00 | 0.00 | 15 | 1007.8 |
| 20260503231537 | 77 | 294 | 7.0 | 14.0 | 0.00 | 0.00 | 0.00 | 14 | 1008.0 |
| 20260503230037 | 76 | 279 | 5.0 | 17.0 | 0.00 | 0.00 | 0.00 | 16 | 1008.0 |
| 20260503224537 | 76 | 265 | 5.0 | 16.0 | 0.00 | 0.00 | 0.00 | 15 | 1008.2 |
| 20260503223039 | 76 | 300 | 7.0 | 12.0 | 0.00 | 0.00 | 0.00 | 16 | 1008.3 |
| 20260503221543 | 75 | 300 | 9.0 | 19.0 | 0.00 | 0.00 | 0.00 | 15 | 1008.7 |
| 20260503220049 | 76 | 307 | 6.0 | 13.0 | 0.00 | 0.00 | 0.00 | 15 | 1008.8 |
| 20260503214537 | 76 | 309 | 7.0 | 16.0 | 0.00 | 0.00 | 0.00 | 14 | 1009.0 |
| 20260503213040 | 75 | 306 | 7.0 | 14.0 | 0.00 | 0.00 | 0.00 | 16 | 1009.2 |
| 20260503211550 | 75 | 246 | 6.0 | 15.0 | 0.00 | 0.00 | 0.00 | 16 | 1009.5 |
| 20260503210041 | 74 | 295 | 7.0 | 17.0 | 0.00 | 0.00 | 0.00 | 15 | 1009.6 |
| 20260503204540 | 74 | 315 | 9.0 | 16.0 | 0.00 | 0.00 | 0.00 | 14 | 1010.1 |
| 20260503203038 | 74 | 348 | 7.0 | 16.0 | 0.00 | 0.00 | 0.00 | 17 | 1010.1 |
| 20260503201539 | 74 | 302 | 6.0 | 15.0 | 0.00 | 0.00 | 0.00 | 16 | 1010.3 |
| 20260503200037 | 73 | 317 | 9.0 | 16.0 | 0.00 | 0.00 | 0.00 | 15 | 1010.3 |
| 20260503194537 | 74 | 241 | 10.0 | 16.0 | 0.00 | 0.00 | 0.00 | 16 | 1010.5 |
| 20260503193042 | 73 | 303 | 8.0 | 17.0 | 0.00 | 0.00 | 0.00 | 17 | 1010.7 |
| 20260503191540 | 73 | 263 | 11.0 | 18.0 | 0.00 | 0.00 | 0.00 | 18 | 1010.9 |
| 20260503190039 | 74 | 219 | 8.0 | 16.0 | 0.00 | 0.00 | 0.00 | 19 | 1011.2 |
| 20260503184537 | 74 | 255 | 10.0 | 19.0 | 0.00 | 0.00 | 0.00 | 18 | 1011.3 |
| 20260503183041 | 73 | 257 | 6.0 | 14.0 | 0.00 | 0.00 | 0.00 | 20 | 1011.4 |
| 20260503181612 | 73 | 244 | 9.0 | 18.0 | 0.00 | 0.00 | 0.00 | 21 | 1011.9 |
| 20260503180041 | 71 | 240 | 8.0 | 15.0 | 0.00 | 0.00 | 0.00 | 22 | 1012.1 |
| 20260503174537 | 70 | 236 | 6.0 | 13.0 | 0.00 | 0.00 | 0.00 | 25 | 1012.3 |
| 20260503173051 | 69 | 317 | 7.0 | 12.0 | 0.00 | 0.00 | 0.00 | 25 | 1012.5 |
| 20260503171538 | 68 | 274 | 4.0 | 11.0 | 0.00 | 0.00 | 0.00 | 28 | 1012.5 |